Date,TemperatureHighF,TemperatureAvgF,TemperatureLowF,DewpointHighF,DewpointAvgF,DewpointLowF,HumidityHigh,HumidityAvg,HumidityLow,PressureMaxIn,PressureMinIn,WindSpeedMaxMPH,WindSpeedAvgMPH,GustSpeedMaxMPH,PrecipitationSumIn
2013-2-1,15.1,10.4,6.0,11.0,6.4,4.0,86,79,65,28.38,27.86,11,3,14,0.00
2013-2-2,15.3,9.6,4.1,11.0,6.5,0.0,89,83,75,28.42,28.26,14,1,16,0.00
2013-2-3,24.5,12.2,-1.3,14.0,6.2,0.0,90,74,45,28.28,28.03,13,1,13,0.00
2013-2-4,16.4,10.7,0.3,14.0,4.1,-6.0,91,70,40,28.20,28.03,16,2,16,0.01
2013-2-5,20.2,7.3,-9.0,8.0,-1.0,-13.0,86,65,36,28.26,28.14,6,1,6,0.00
2013-2-6,21.0,14.2,0.1,18.0,8.7,-6.0,92,74,50,28.63,28.13,12,2,13,0.00
2013-2-7,20.3,5.9,-5.6,4.0,-1.6,-6.0,87,68,45,28.76,28.59,7,1,7,0.00
2013-2-8,24.7,18.1,6.9,24.0,15.5,0.0,91,86,73,28.59,28.21,21,4,23,0.00
2013-2-9,16.6,7.9,-5.9,11.0,2.6,-6.0,90,75,47,28.66,28.25,15,2,15,0.01
2013-2-10,34.4,10.5,-12.4,14.0,1.5,-13.0,85,65,25,28.72,28.45,6,0,6,0.12
2013-2-11,39.7,33.6,16.7,36.0,24.3,8.0,95,69,32,28.45,27.95,22,4,24,0.15
2013-2-12,30.1,28.0,24.9,29.0,26.7,23.0,96,93,89,28.19,27.93,14,3,14,0.00
2013-2-13,30.3,26.6,24.3,26.0,23.8,23.0,94,87,74,28.17,28.07,6,1,8,0.05
2013-2-14,33.2,26.1,23.2,24.0,21.9,18.0,96,82,58,28.24,28.08,8,0,8,0.02
2013-2-15,34.2,30.2,23.7,31.0,25.2,16.0,94,80,66,28.29,28.12,16,3,17,0.04
2013-2-16,24.5,17.9,9.2,16.0,10.0,0.0,89,69,45,28.31,28.21,6,1,10,0.00
2013-2-17,10.7,5.3,0.0,4.0,0.2,-6.0,85,73,60,28.22,28.04,11,2,12,0.00
2013-2-18,18.6,6.8,-3.2,0.0,-2.3,-6.0,82,62,36,28.45,28.22,10,2,12,0.00
2013-2-19,44.1,24.8,7.5,29.0,16.2,0.0,96,69,38,28.38,27.95,18,3,19,0.03
2013-2-20,24.8,19.8,12.3,23.0,15.7,11.0,91,82,66,28.11,27.96,13,4,13,0.01
2013-2-21,13.3,8.4,1.0,11.0,6.3,0.0,92,85,79,28.70,28.11,10,2,10,0.00
2013-2-22,31.7,22.2,5.5,23.0,16.5,4.0,92,77,63,28.69,28.46,21,2,21,0.14
2013-2-23,34.9,32.0,29.0,31.0,26.7,21.0,93,79,63,28.47,28.18,17,3,17,0.01
2013-2-24,31.4,29.0,26.7,31.0,27.6,24.0,98,92,85,28.29,28.13,4,1,4,0.06
2013-2-25,34.6,29.1,26.1,29.0,26.6,24.0,96,90,75,28.55,28.29,5,0,5,0.03
2013-2-26,36.6,25.2,18.4,29.0,24.0,18.0,97,93,62,28.60,28.49,5,0,5,0.01
2013-2-27,36.3,34.7,32.2,32.0,30.3,26.0,90,84,80,28.21,28.01,12,6,12,0.05
2013-2-28,37.8,34.2,31.0,29.0,27.5,26.0,91,77,63,27.98,27.92,4,1,4,0.01